DT;CODE;NAME;B720U03000;B721U03000;B722U03000;B723U33000;B724U33000;B725U33000;B726U33000;B734W03000;B735W03000;B738W03000
2017-12-01 00:00:00;351230497;W�ODAWA;;-0.64;;-1.28;-9.05;316.79;323.95;-0.64;715.53;0.61
2017-12-01 00:01:00;351230497;W�ODAWA;;-0.64;;-1.37;-9.08;314.86;323.69;-0.73;673.63;-1.12
2017-12-01 00:02:00;351230497;W�ODAWA;;-0.64;;-1.56;-9.25;313.42;323.64;-0.92;595.76;-2.53
2017-12-01 00:03:00;351230497;W�ODAWA;;-0.64;;-1.59;-9.30;314.18;323.60;-0.94;589.41;-1.71
2017-12-01 00:04:00;351230497;W�ODAWA;;-0.64;;-1.44;-9.27;315.43;323.66;-0.80;645.46;-0.40
2017-12-01 00:05:00;351230497;W�ODAWA;;-0.64;;-1.36;-9.26;316.30;323.71;-0.72;685.42;0.49
2017-12-01 00:06:00;351230497;W�ODAWA;;-0.64;;-1.16;-9.13;316.13;323.67;-0.51;806.79;0.43
2017-12-01 00:07:00;351230497;W�ODAWA;;-0.64;;-1.32;-9.31;312.94;323.57;-0.68;708.12;-2.64
2017-12-01 00:08:00;351230497;W�ODAWA;;-0.64;;-1.17;-9.18;312.73;323.58;-0.53;789.17;-2.84
2017-12-01 00:09:00;351230497;W�ODAWA;;-0.64;;-1.09;-9.10;311.46;323.46;-0.45;844.93;-3.99
2017-12-01 00:10:00;351230497;W�ODAWA;;-0.64;;-1.35;-9.18;307.57;323.01;-0.71;684.95;-7.61
2017-12-01 00:11:00;351230497;W�ODAWA;;-0.64;;-1.37;-9.33;314.71;323.21;-0.73;684.74;-0.54
2017-12-01 00:12:00;351230497;W�ODAWA;;-0.64;;-1.21;-9.28;313;323.23;-0.57;773.28;-2.16
2017-12-01 00:13:00;351230497;W�ODAWA;;-0.64;;-1.21;-9.41;314.12;323.21;-0.57;802.53;-0.89
2017-12-01 00:14:00;351230497;W�ODAWA;;-0.64;;-0.82;-9.22;312.60;323.24;-0.17;1151.42;-2.24
2017-12-01 00:15:00;351230497;W�ODAWA;;-0.64;;-0.85;-9.24;310.80;323.06;-0.21;1101.02;-3.87
2017-12-01 00:16:00;351230497;W�ODAWA;;-0.64;;-0.97;-9.42;313.68;323.13;-0.33;983.94;-1
2017-12-01 00:17:00;351230497;W�ODAWA;;-0.64;;-0.83;-9.36;313.91;323.23;-0.19;1164.32;-0.79
2017-12-01 00:18:00;351230497;W�ODAWA;;-0.64;;-0.80;-9.23;305.74;322.77;-0.16;1190.96;-8.60
2017-12-01 00:19:00;351230497;W�ODAWA;;-0.64;;-1.15;-9.45;307.67;322.43;-0.51;835.72;-6.46
2017-12-01 00:20:00;351230497;W�ODAWA;;-0.64;;-1.22;-9.59;313.48;322.77;-0.57;795.23;-0.92
2017-12-01 00:21:00;351230497;W�ODAWA;;-0.64;;-1.15;-9.68;315.39;322.91;-0.51;851.66;1.01
2017-12-01 00:22:00;351230497;W�ODAWA;;-0.64;;-0.86;-9.50;315.59;323.05;-0.22;1194.64;1.18
2017-12-01 00:23:00;351230497;W�ODAWA;;-0.64;;-0.60;-9.35;314.93;323.01;0.04;1622.46;0.67
2017-12-01 00:24:00;351230497;W�ODAWA;;-0.53;;-0.55;-9.35;312.77;322.83;-0.02;1825.10;-1.26
2017-12-01 00:25:00;351230497;W�ODAWA;;-0.52;;-0.37;-9.23;314.74;322.74;0.15;2779.38;0.86
2017-12-01 00:26:00;351230497;W�ODAWA;;-0.39;;-0.30;-9.28;315.18;322.87;0.10;3613.55;1.29
2017-12-01 00:27:00;351230497;W�ODAWA;;-0.34;;-0.23;-9.29;315.55;322.76;0.11;2221.25;1.85
2017-12-01 00:28:00;351230497;W�ODAWA;;-0.32;;-0.44;-9.47;316.01;322.73;-0.12;2393.55;2.31
2017-12-01 00:29:00;351230497;W�ODAWA;;-0.32;;-0.25;-9.30;315.35;322.68;0.07;4113.88;1.72
2017-12-01 00:30:00;351230497;W�ODAWA;;-0.32;;-0.16;-9.11;314.41;322.64;0.16;-1252.15;0.72
2017-12-01 00:31:00;351230497;W�ODAWA;;-0.32;;-0.14;-9.06;314.64;322.48;0.18;-3122.26;1.08
2017-12-01 00:32:00;351230497;W�ODAWA;;-0.32;;-0.12;-9.05;313.29;322.46;0.20;-5057.81;-0.24
2017-12-01 00:33:00;351230497;W�ODAWA;;-0.32;;-0.09;-9.08;312.14;322.19;0.24;-10904.40;-1.06
2017-12-01 00:34:00;351230497;W�ODAWA;;-0.32;;-0.30;-9.23;315.32;322.29;0.02;2459.52;1.96
2017-12-01 00:35:00;351230497;W�ODAWA;;-0.32;;-0.44;-9.38;316.06;322.32;-0.12;2429.43;2.68
2017-12-01 00:36:00;351230497;W�ODAWA;;-0.32;;-0.45;-9.44;316.71;322.34;-0.13;2338;3.36
2017-12-01 00:37:00;351230497;W�ODAWA;;-0.32;;-0.48;-9.54;316.67;322.32;-0.16;2032.02;3.41
2017-12-01 00:38:00;351230497;W�ODAWA;;-0.32;;-0.43;-9.63;315.75;322.25;-0.11;2345.65;2.70
2017-12-01 00:39:00;351230497;W�ODAWA;;-0.32;;-0.42;-9.60;316.38;322.22;-0.10;2854.40;3.34
2017-12-01 00:40:00;351230497;W�ODAWA;;-0.32;;-0.21;-9.40;315.78;322.05;0.12;-1761.71;2.92
2017-12-01 00:41:00;351230497;W�ODAWA;;-0.32;;-0.05;-9.36;316.39;321.93;0.27;-7752.73;3.77
2017-12-01 00:42:00;351230497;W�ODAWA;;-0.29;;0.01;-9.37;312.95;321.63;0.30;-17037.90;0.70
2017-12-01 00:43:00;351230497;W�ODAWA;;-0.30;;-0.12;-9.42;310.54;321.51;0.18;-6302.78;-1.67
2017-12-01 00:44:00;351230497;W�ODAWA;;-0.24;;-0.27;-9.59;316.09;321.66;-0.04;-402.10;3.75
2017-12-01 00:45:00;351230497;W�ODAWA;;-0.21;;-0.27;-9.64;316.76;321.81;-0.06;804.23;4.32
2017-12-01 00:46:00;351230497;W�ODAWA;;-0.30;;0.03;-9.48;316.87;321.50;0.33;-16812.80;4.88
2017-12-01 00:47:00;351230497;W�ODAWA;;-0.11;;0.07;-9.51;316.96;321.51;0.18;-21942.70;5.03
2017-12-01 00:48:00;351230497;W�ODAWA;;-0.02;;0.23;-9.43;317.04;321.54;0.25;-7579.39;5.16
2017-12-01 00:49:00;351230497;W�ODAWA;;-0.01;;0.16;-9.53;316.84;321.31;0.17;-14052.20;5.22
2017-12-01 00:50:00;351230497;W�ODAWA;;-0.12;;-0.18;-9.65;316.80;321.40;-0.05;679.45;4.87
2017-12-01 00:51:00;351230497;W�ODAWA;;-0.29;;-0.59;-9.91;316.23;321.38;-0.30;2158.35;4.17
2017-12-01 00:52:00;351230497;W�ODAWA;;-0.30;;-0.91;-10.03;316.36;321.45;-0.61;1117.06;4.03
2017-12-01 00:53:00;351230497;W�ODAWA;;-0.31;;-1.02;-10.20;316.36;321.37;-0.71;1020.02;4.17
2017-12-01 00:54:00;351230497;W�ODAWA;;-0.30;;-1.14;-10.43;316.20;321.27;-0.84;924.58;4.22
2017-12-01 00:55:00;351230497;W�ODAWA;;-0.29;;-1.18;-10.55;315.92;321.21;-0.89;904.95;4.08
2017-12-01 00:56:00;351230497;W�ODAWA;;-0.32;;-1.31;-10.68;316.07;321.33;-0.99;821.55;4.11
2017-12-01 00:57:00;351230497;W�ODAWA;;-0.32;;-1.28;-10.64;315.88;321.28;-0.96;842.06;3.96
2017-12-01 00:58:00;351230497;W�ODAWA;;-0.32;;-1.12;-10.49;315.72;321.21;-0.80;950.59;3.88
2017-12-01 00:59:00;351230497;W�ODAWA;;-0.32;;-1.08;-10.44;315.80;320.95;-0.76;984.66;4.21
2017-12-01 01:00:00;351230497;W�ODAWA;;-0.32;;-1.10;-10.50;315.36;321.08;-0.78;985.25;3.68
2017-12-01 01:01:00;351230497;W�ODAWA;;-0.32;;-0.85;-10.28;314.95;320.91;-0.53;1284.79;3.47
2017-12-01 01:02:00;351230497;W�ODAWA;;-0.32;;-0.64;-10.21;315;320.86;-0.31;1809.40;3.71
2017-12-01 01:03:00;351230497;W�ODAWA;;-0.32;;-0.54;-10.12;315.17;320.68;-0.22;1968.68;4.07
2017-12-01 01:04:00;351230497;W�ODAWA;;-0.32;;-0.54;-10.06;315.06;320.76;-0.22;2017.91;3.82
2017-12-01 01:05:00;351230497;W�ODAWA;;-0.32;;-0.48;-10;314.96;320.69;-0.16;2458.36;3.79
2017-12-01 01:06:00;351230497;W�ODAWA;;-0.32;;-0.58;-10.10;314.33;320.75;-0.26;1845.86;3.10
2017-12-01 01:07:00;351230497;W�ODAWA;;-0.32;;-0.55;-10.05;314.26;320.52;-0.22;1928.13;3.24
2017-12-01 01:08:00;351230497;W�ODAWA;;-0.32;;-0.41;-9.90;314.44;320.47;-0.09;968.15;3.46
2017-12-01 01:09:00;351230497;W�ODAWA;;-0.32;;-0.10;-9.73;314.41;320.41;0.22;-8279.96;3.63
2017-12-01 01:10:00;351230497;W�ODAWA;;-0.32;;-0.02;-9.68;314.04;320.41;0.30;-15241.10;3.29
2017-12-01 01:11:00;351230497;W�ODAWA;;-0.32;;0.08;-9.51;314.11;320.35;0.40;-11602.90;3.35
2017-12-01 01:12:00;351230497;W�ODAWA;;-0.32;;0.16;-9.48;313.77;320.24;0.48;-13995.60;3.17
2017-12-01 01:13:00;351230497;W�ODAWA;;-0.32;;0.17;-9.48;313.71;320.28;0.49;-13241.80;3.08
2017-12-01 01:14:00;351230497;W�ODAWA;;-0.32;;0.23;-9.42;313.77;320.22;0.55;-8618.14;3.20
2017-12-01 01:15:00;351230497;W�ODAWA;;-0.32;;0.05;-9.49;313.52;320.19;0.37;-23383.40;2.87
2017-12-01 01:16:00;351230497;W�ODAWA;;-0.32;;-0.01;-9.50;313.51;320.12;0.31;-16992.50;2.88
2017-12-01 01:17:00;351230497;W�ODAWA;;-0.32;;-0.11;-9.59;313.20;320.08;0.21;-7370.28;2.60
2017-12-01 01:18:00;351230497;W�ODAWA;;-0.32;;-0.21;-9.65;313.10;320.07;0.11;-3038.02;2.47
2017-12-01 01:19:00;351230497;W�ODAWA;;-0.32;;-0.26;-9.67;313.06;320.11;0.06;4188.57;2.36
2017-12-01 01:20:00;351230497;W�ODAWA;;-0.32;;-0.41;-9.80;312.92;320.04;-0.09;2526.29;2.27
2017-12-01 01:21:00;351230497;W�ODAWA;;-0.32;;-0.17;-9.73;313.25;319.99;0.15;-7029.75;2.82
2017-12-01 01:22:00;351230497;W�ODAWA;;-0.32;;0.05;-9.58;313.53;320.13;0.37;-14751.40;3.03
2017-12-01 01:23:00;351230497;W�ODAWA;;-0.32;;0.05;-9.52;313.35;320.11;0.37;-19933.20;2.81
2017-12-01 01:24:00;351230497;W�ODAWA;;-0.32;;0.07;-9.55;313.35;320.04;0.39;-22065.80;2.93
2017-12-01 01:25:00;351230497;W�ODAWA;;-0.32;;0.16;-9.53;313.53;320.09;0.48;-11614.90;3.13
2017-12-01 01:26:00;351230497;W�ODAWA;;-0.32;;0.17;-9.52;313.65;320.07;0.49;-11531.90;3.27
2017-12-01 01:27:00;351230497;W�ODAWA;;-0.32;;-0.05;-9.62;313.51;320.05;0.27;-12085.10;3.03
2017-12-01 01:28:00;351230497;W�ODAWA;;-0.32;;-0.13;-9.67;313.49;320.08;0.19;-9885.45;2.95
2017-12-01 01:29:00;351230497;W�ODAWA;;-0.32;;-0.17;-9.68;313.66;320.07;0.15;779.26;3.10
2017-12-01 01:30:00;351230497;W�ODAWA;;-0.32;;0.02;-9.59;313.99;320.05;0.34;-17747.60;3.55
2017-12-01 01:31:00;351230497;W�ODAWA;;-0.48;;0.40;-9.36;314.17;320.11;0.87;-4128.26;3.82
2017-12-01 01:32:00;351230497;W�ODAWA;;-0.35;;0.38;-9.41;314.06;320.06;0.73;-2762.67;3.79
2017-12-01 01:33:00;351230497;W�ODAWA;;-0.32;;0.28;-9.48;313.84;320.10;0.61;-6217.56;3.50
2017-12-01 01:34:00;351230497;W�ODAWA;;-0.33;;0.56;-9.22;314.02;320.01;0.89;-1836.24;3.79
2017-12-01 01:35:00;351230497;W�ODAWA;;-0.32;;0.54;-9.20;314.01;320.03;0.86;-1735.41;3.72
2017-12-01 01:36:00;351230497;W�ODAWA;;-0.32;;0.26;-9.42;313.72;319.98;0.58;-9128.19;3.42
2017-12-01 01:37:00;351230497;W�ODAWA;;-0.32;;0.29;-9.42;313.80;320.03;0.61;-3338.42;3.48
2017-12-01 01:38:00;351230497;W�ODAWA;;-0.32;;0.27;-9.48;313.65;319.99;0.59;-7043.03;3.41
2017-12-01 01:39:00;351230497;W�ODAWA;;-0.32;;0.31;-9.36;313.62;319.98;0.63;-5283;3.31
2017-12-01 01:40:00;351230497;W�ODAWA;;-0.32;;0.20;-9.39;313.59;319.95;0.52;-15033.80;3.23
2017-12-01 01:41:00;351230497;W�ODAWA;;-0.34;;0.29;-9.43;314;319.86;0.63;-5415.72;3.86
2017-12-01 01:42:00;351230497;W�ODAWA;;-0.32;;0.37;-9.45;314.18;320.09;0.69;-7073.92;3.91
2017-12-01 01:43:00;351230497;W�ODAWA;;-0.32;;0.41;-9.35;314.16;320.10;0.73;-3239.21;3.82
2017-12-01 01:44:00;351230497;W�ODAWA;;-0.32;;0.35;-9.38;314.04;320.02;0.67;-2912.93;3.75
2017-12-01 01:45:00;351230497;W�ODAWA;;-0.32;;0.45;-9.32;314.22;320.01;0.77;-2217.28;3.98
2017-12-01 01:46:00;351230497;W�ODAWA;;-0.32;;0.29;-9.42;314.21;320.07;0.61;-8237.59;3.85
2017-12-01 01:47:00;351230497;W�ODAWA;;-0.32;;0.50;-9.27;314.38;319.97;0.82;-2178.12;4.18
2017-12-01 01:48:00;351230497;W�ODAWA;;-0.32;;0.33;-9.32;314.29;320.06;0.65;-4428.22;3.88
2017-12-01 01:49:00;351230497;W�ODAWA;;-0.32;;0.10;-9.52;314.37;320.06;0.42;-20001.60;3.93
2017-12-01 01:50:00;351230497;W�ODAWA;;-0.33;;0.31;-9.44;314.58;320.06;0.65;-5983.54;4.27
2017-12-01 01:51:00;351230497;W�ODAWA;;-0.33;;0.38;-9.49;314.61;320.16;0.71;-2734.60;4.32
2017-12-01 01:52:00;351230497;W�ODAWA;;-0.36;;0.44;-9.46;314.53;320.26;0.81;-3072.38;4.17
2017-12-01 01:53:00;351230497;W�ODAWA;;-0.34;;0.40;-9.46;314.30;320.08;0.74;-2689.73;4.08
2017-12-01 01:54:00;351230497;W�ODAWA;;-0.32;;0.20;-9.56;314.26;320.08;0.52;-10332.70;3.94
2017-12-01 01:55:00;351230497;W�ODAWA;;-0.32;;0.11;-9.63;314.45;320.09;0.43;-19471.50;4.10
2017-12-01 01:56:00;351230497;W�ODAWA;;-0.32;;0.19;-9.57;314.64;320.17;0.51;-11098.70;4.23
2017-12-01 01:57:00;351230497;W�ODAWA;;-0.59;;0.58;-9.37;314.81;320.24;1.17;-1741.21;4.52
2017-12-01 01:58:00;351230497;W�ODAWA;;-0.36;;0.52;-9.40;314.57;320.15;0.88;-2034.36;4.34
2017-12-01 01:59:00;351230497;W�ODAWA;;-0.32;;0.46;-9.47;314.58;320.14;0.78;-2232.44;4.37
2017-12-01 02:00:00;351230497;W�ODAWA;;-0.32;;0.31;-9.54;314.33;320.13;0.64;-3222.77;4.05
2017-12-01 02:01:00;351230497;W�ODAWA;;-0.32;;0.09;-9.70;313.94;320.07;0.41;-18317.30;3.66
2017-12-01 02:02:00;351230497;W�ODAWA;;-0.32;;0.06;-9.70;314.01;320.15;0.38;-12344.10;3.62
2017-12-01 02:03:00;351230497;W�ODAWA;;-0.32;;0;-9.76;314.08;320.13;0.32;-16674.40;3.71
2017-12-01 02:04:00;351230497;W�ODAWA;;-0.32;;-0.12;-9.83;313.98;320.13;0.20;-6953.34;3.56
2017-12-01 02:05:00;351230497;W�ODAWA;;-0.32;;-0.34;-9.97;314.16;320.17;-0.02;3355.49;3.62
2017-12-01 02:06:00;351230497;W�ODAWA;;-0.32;;-0.49;-10.08;314.22;320.17;-0.17;2181.31;3.64
2017-12-01 02:07:00;351230497;W�ODAWA;;-0.35;;-0.16;-9.85;314.16;320.19;0.19;-4787.81;3.66
2017-12-01 02:08:00;351230497;W�ODAWA;;-0.34;;-0.01;-9.83;314.07;320.22;0.33;-12118.40;3.67
2017-12-01 02:09:00;351230497;W�ODAWA;;-0.32;;0.01;-9.91;314.09;320.29;0.33;-22772.20;3.72
2017-12-01 02:10:00;351230497;W�ODAWA;;-0.32;;-0.24;-10.05;313.69;320.20;0.08;2237.14;3.30
2017-12-01 02:11:00;351230497;W�ODAWA;;-0.32;;-0.47;-10.18;313.73;320.25;-0.15;2343.03;3.19
2017-12-01 02:12:00;351230497;W�ODAWA;;-0.36;;-0.22;-9.99;313.89;320.25;0.14;-2073.83;3.41
2017-12-01 02:13:00;351230497;W�ODAWA;;-0.60;;0.16;-9.79;313.77;320.37;0.76;-11207.60;3.35
2017-12-01 02:14:00;351230497;W�ODAWA;;-0.64;;0.48;-9.56;313.18;320.29;1.12;-2095.16;2.93
2017-12-01 02:15:00;351230497;W�ODAWA;;-0.64;;0.57;-9.37;312.95;320.14;1.21;-1794.33;2.75
2017-12-01 02:16:00;351230497;W�ODAWA;;-0.38;;0.38;-9.54;312.80;320.08;0.76;-4942.73;2.64
2017-12-01 02:17:00;351230497;W�ODAWA;;-0.34;;0.28;-9.56;311.82;320.12;0.63;-6975.39;1.54
2017-12-01 02:18:00;351230497;W�ODAWA;;-0.37;;0.13;-9.66;311.16;320.06;0.50;-12635.10;0.89
2017-12-01 02:19:00;351230497;W�ODAWA;;-0.32;;0.06;-9.67;312.56;320.12;0.38;-19480.60;2.17
2017-12-01 02:20:00;351230497;W�ODAWA;;-0.50;;0.25;-9.54;313.72;320.25;0.74;-10042.50;3.26
2017-12-01 02:21:00;351230497;W�ODAWA;;-0.36;;0.28;-9.56;313.83;320.16;0.65;-5553.58;3.51
2017-12-01 02:22:00;351230497;W�ODAWA;;-0.34;;0.32;-9.50;313.50;320.12;0.66;-3158.55;3.20
2017-12-01 02:23:00;351230497;W�ODAWA;;-0.33;;0.19;-9.54;313.38;320.15;0.53;-10350.70;2.96
2017-12-01 02:24:00;351230497;W�ODAWA;;-0.32;;0.01;-9.74;312.64;320.18;0.33;-21319.90;2.21
2017-12-01 02:25:00;351230497;W�ODAWA;;-0.33;;-0.08;-9.82;312.15;320.11;0.25;-11789.50;1.78
2017-12-01 02:26:00;351230497;W�ODAWA;;-0.32;;0.01;-9.80;312.42;320.11;0.33;-19699.20;2.12
2017-12-01 02:27:00;351230497;W�ODAWA;;-0.52;;0.21;-9.67;312.60;320.21;0.73;-10794.80;2.27
2017-12-01 02:28:00;351230497;W�ODAWA;;-0.49;;0.22;-9.62;312.34;320.16;0.71;-10278.50;2.02
2017-12-01 02:29:00;351230497;W�ODAWA;;-0.43;;0.33;-9.52;311.55;320.03;0.76;-3813.72;1.37
2017-12-01 02:30:00;351230497;W�ODAWA;;-0.45;;0.30;-9.54;311.34;320.12;0.74;-3329.23;1.06
2017-12-01 02:31:00;351230497;W�ODAWA;;-0.48;;0.29;-9.50;311.26;320.02;0.77;-6851.87;1.03
2017-12-01 02:32:00;351230497;W�ODAWA;;-0.45;;0.53;-9.33;311.25;320;0.97;-1964.50;1.11
2017-12-01 02:33:00;351230497;W�ODAWA;;-0.42;;0.43;-9.42;310.49;319.95;0.85;-2396.18;0.39
2017-12-01 02:34:00;351230497;W�ODAWA;;-0.55;;0.56;-9.19;309.99;319.93;1.11;-1889.14;-0.19
2017-12-01 02:35:00;351230497;W�ODAWA;;-0.62;;0.47;-9.17;308.25;319.90;1.09;-2107.96;-2.01
2017-12-01 02:36:00;351230497;W�ODAWA;;-0.61;;0.33;-9.18;303.73;319.56;0.94;-4351.33;-6.32
2017-12-01 02:37:00;351230497;W�ODAWA;;-0.42;;-0.13;-9.36;299.08;319.14;0.29;-5913.06;-10.83
2017-12-01 02:38:00;351230497;W�ODAWA;;-0.55;;-0.55;-9.47;297.25;318.89;0;1793.31;-12.72
2017-12-01 02:39:00;351230497;W�ODAWA;;-0.64;;-0.64;-9.54;300.44;318.97;0;1545.23;-9.63
2017-12-01 02:40:00;351230497;W�ODAWA;;-0.64;;-0.56;-9.52;302.86;319.09;0.09;1789.58;-7.27
2017-12-01 02:41:00;351230497;W�ODAWA;;-0.64;;-0.41;-9.65;309.48;319.42;0.23;2653.72;-0.70
2017-12-01 02:42:00;351230497;W�ODAWA;;-0.64;;-0.17;-9.56;312.08;319.81;0.47;-5832.95;1.66
2017-12-01 02:43:00;351230497;W�ODAWA;;-0.64;;0.02;-9.62;312.56;319.89;0.66;-16009.60;2.31
2017-12-01 02:44:00;351230497;W�ODAWA;;-0.64;;0.11;-9.61;312.55;319.81;0.75;-19515.20;2.46
2017-12-01 02:45:00;351230497;W�ODAWA;;-0.42;;0.06;-9.61;312.08;319.86;0.48;-13684.90;1.89
2017-12-01 02:46:00;351230497;W�ODAWA;;-0.33;;0.22;-9.55;312.81;319.91;0.55;-8833.68;2.67
2017-12-01 02:47:00;351230497;W�ODAWA;;-0.36;;0.16;-9.61;312.41;320.01;0.53;-14191.20;2.17
2017-12-01 02:48:00;351230497;W�ODAWA;;-0.32;;0.19;-9.53;312.24;319.94;0.51;-11822.40;2.02
2017-12-01 02:49:00;351230497;W�ODAWA;;-0.41;;0.23;-9.54;312.87;319.87;0.65;-6976.14;2.77
2017-12-01 02:50:00;351230497;W�ODAWA;;-0.42;;0.46;-9.44;313.17;320;0.88;-2228.34;3.07
2017-12-01 02:51:00;351230497;W�ODAWA;;-0.40;;0.50;-9.42;313.05;320.03;0.91;-2144.35;2.94
2017-12-01 02:52:00;351230497;W�ODAWA;;-0.53;;0.84;-9.19;313.35;319.92;1.37;-1147.29;3.46
2017-12-01 02:53:00;351230497;W�ODAWA;;-0.33;;0.64;-9.31;313.27;320.04;0.97;-1530.59;3.18
2017-12-01 02:54:00;351230497;W�ODAWA;;-0.32;;0.72;-9.22;313.34;319.94;1.04;-1306.86;3.34
2017-12-01 02:55:00;351230497;W�ODAWA;;-0.32;;0.70;-9.21;313.38;319.99;1.02;-1342.83;3.30
2017-12-01 02:56:00;351230497;W�ODAWA;;-0.34;;0.74;-9.16;313.64;319.94;1.08;-1261.15;3.60
2017-12-01 02:57:00;351230497;W�ODAWA;;-0.32;;0.72;-9.19;313.68;319.92;1.04;-1284.52;3.67
2017-12-01 02:58:00;351230497;W�ODAWA;;-0.35;;0.90;-9.05;313.76;319.93;1.25;-1046.40;3.78
2017-12-01 02:59:00;351230497;W�ODAWA;;-0.32;;0.74;-9.16;313.53;319.84;1.07;-1251.86;3.59
2017-12-01 03:00:00;351230497;W�ODAWA;;-0.32;;0.36;-9.48;313.38;319.89;0.68;-5811.96;3.33
2017-12-01 03:01:00;351230497;W�ODAWA;;-0.32;;0.26;-9.49;313.78;319.84;0.58;-7062.94;3.69
2017-12-01 03:02:00;351230497;W�ODAWA;;-0.43;;0.47;-9.41;313.92;319.95;0.90;-2134.35;3.85
2017-12-01 03:03:00;351230497;W�ODAWA;;-0.35;;0.40;-9.49;313.84;319.91;0.75;-2631.28;3.82
2017-12-01 03:04:00;351230497;W�ODAWA;;-0.32;;0.45;-9.40;313.61;319.79;0.77;-3685.73;3.67
2017-12-01 03:05:00;351230497;W�ODAWA;;-0.32;;0.26;-9.52;313.79;319.87;0.58;-7104.22;3.70
2017-12-01 03:06:00;351230497;W�ODAWA;;-0.32;;0.47;-9.47;313.85;319.94;0.79;-2249.52;3.85
2017-12-01 03:07:00;351230497;W�ODAWA;;-0.32;;0.59;-9.40;313.57;319.90;0.91;-1659.53;3.66
2017-12-01 03:08:00;351230497;W�ODAWA;;-0.34;;0.77;-9.30;313.35;320.10;1.12;-1222.06;3.32
2017-12-01 03:09:00;351230497;W�ODAWA;;-0.33;;0.89;-9.15;312.94;319.90;1.22;-1048.96;3.08
2017-12-01 03:10:00;351230497;W�ODAWA;;-0.32;;0.68;-9.25;313.30;319.83;1.01;-1396.30;3.40
2017-12-01 03:11:00;351230497;W�ODAWA;;-0.32;;0.57;-9.31;313.35;319.85;0.89;-1714.29;3.38
2017-12-01 03:12:00;351230497;W�ODAWA;;-0.36;;0.68;-9.17;313.44;319.95;1.04;-1450.59;3.34
2017-12-01 03:13:00;351230497;W�ODAWA;;-0.61;;0.94;-9.01;313.22;319.79;1.55;-986.86;3.38
2017-12-01 03:14:00;351230497;W�ODAWA;;-0.63;;1.15;-8.91;313.65;319.98;1.78;-788.12;3.73
2017-12-01 03:15:00;351230497;W�ODAWA;;-0.49;;1.24;-8.82;313.77;319.94;1.72;-722.54;3.89
2017-12-01 03:16:00;351230497;W�ODAWA;;-0.41;;1.27;-8.79;313.60;319.88;1.68;-703.05;3.78
2017-12-01 03:17:00;351230497;W�ODAWA;;-0.32;;1.19;-8.84;313.89;319.93;1.51;-754.89;3.99
2017-12-01 03:18:00;351230497;W�ODAWA;;-0.34;;1.30;-8.79;313.76;319.84;1.64;-682.48;4.01
2017-12-01 03:19:00;351230497;W�ODAWA;;-0.34;;0.99;-8.98;312.88;319.85;1.34;-914.90;3
2017-12-01 03:20:00;351230497;W�ODAWA;;-0.32;;0.87;-8.97;313.28;319.76;1.19;-1051.39;3.36
2017-12-01 03:21:00;351230497;W�ODAWA;;-0.32;;0.65;-9.13;313.50;319.83;0.97;-1542.30;3.45
2017-12-01 03:22:00;351230497;W�ODAWA;;-0.32;;0.54;-9.20;313.11;319.82;0.86;-1803.07;3.03
2017-12-01 03:23:00;351230497;W�ODAWA;;-0.37;;0.72;-9.13;313.33;319.78;1.09;-1302.95;3.40
2017-12-01 03:24:00;351230497;W�ODAWA;;-0.32;;0.34;-9.41;312.59;319.80;0.66;-5203.36;2.54
2017-12-01 03:25:00;351230497;W�ODAWA;;-0.32;;0.15;-9.50;312.95;319.79;0.47;-15529.90;2.81
2017-12-01 03:26:00;351230497;W�ODAWA;;-0.32;;0.29;-9.54;313.24;319.70;0.61;-6946.35;3.37
2017-12-01 03:27:00;351230497;W�ODAWA;;-0.33;;0.41;-9.48;313.12;319.93;0.74;-4119.61;3.08
2017-12-01 03:28:00;351230497;W�ODAWA;;-0.43;;0.38;-9.48;313.39;319.84;0.81;-6920.86;3.41
2017-12-01 03:29:00;351230497;W�ODAWA;;-0.46;;0.53;-9.32;313.57;320.02;0.99;-1913.03;3.40
2017-12-01 03:30:00;351230497;W�ODAWA;;-0.46;;0.64;-9.27;313.57;319.67;1.09;-1571.58;3.81
2017-12-01 03:31:00;351230497;W�ODAWA;;-0.35;;0.43;-9.52;313.81;319.88;0.78;-2424.62;3.88
2017-12-01 03:32:00;351230497;W�ODAWA;;-0.32;;0.39;-9.49;313.73;319.79;0.71;-3430.11;3.82
2017-12-01 03:33:00;351230497;W�ODAWA;;-0.32;;0.22;-9.59;313.48;319.86;0.55;-10971.30;3.43
2017-12-01 03:34:00;351230497;W�ODAWA;;-0.32;;0.35;-9.41;313.31;319.81;0.67;-7129.64;3.26
2017-12-01 03:35:00;351230497;W�ODAWA;;-0.47;;0.41;-9.38;313.50;319.83;0.87;-5672.40;3.46
2017-12-01 03:36:00;351230497;W�ODAWA;;-0.34;;0.37;-9.45;313.73;319.70;0.71;-5730.56;3.85
2017-12-01 03:37:00;351230497;W�ODAWA;;-0.34;;0.25;-9.61;313.43;319.87;0.60;-6498.90;3.42
2017-12-01 03:38:00;351230497;W�ODAWA;;-0.37;;0.20;-9.66;313.12;319.81;0.57;-10799.90;3.17
2017-12-01 03:39:00;351230497;W�ODAWA;;-0.33;;0;-9.77;313.20;319.86;0.33;-16089.50;3.11
2017-12-01 03:40:00;351230497;W�ODAWA;;-0.32;;-0.13;-9.81;313.40;319.75;0.19;-3608.97;3.33
2017-12-01 03:41:00;351230497;W�ODAWA;;-0.32;;-0.50;-10.06;313.61;319.93;-0.18;2272.50;3.24
2017-12-01 03:42:00;351230497;W�ODAWA;;-0.32;;-0.62;-10.17;313.63;319.80;-0.30;1738.23;3.38
2017-12-01 03:43:00;351230497;W�ODAWA;;-0.32;;-0.47;-10.16;313.71;319.83;-0.15;2457.44;3.57
2017-12-01 03:44:00;351230497;W�ODAWA;;-0.32;;-0.22;-10.02;314.13;319.92;0.10;-887.54;4.01
2017-12-01 03:45:00;351230497;W�ODAWA;;-0.38;;-0.05;-9.98;314.23;319.91;0.34;-12459;4.25
2017-12-01 03:46:00;351230497;W�ODAWA;;-0.37;;-0.12;-10.05;314.09;319.88;0.25;-9005.48;4.14
2017-12-01 03:47:00;351230497;W�ODAWA;;-0.36;;0.29;-9.67;314.37;319.91;0.65;-9915.23;4.42
2017-12-01 03:48:00;351230497;W�ODAWA;;-0.37;;0.38;-9.61;314.07;319.85;0.76;-2804.80;4.21
2017-12-01 03:49:00;351230497;W�ODAWA;;-0.32;;0.22;-9.78;314.05;319.73;0.55;-13376.80;4.32
2017-12-01 03:50:00;351230497;W�ODAWA;;-0.32;;0.04;-9.85;313.97;319.76;0.36;-17740.30;4.10
2017-12-01 03:51:00;351230497;W�ODAWA;;-0.32;;-0.02;-9.91;313.90;319.79;0.30;-19266.50;4
2017-12-01 03:52:00;351230497;W�ODAWA;;-0.36;;-0.18;-9.97;313.67;319.69;0.19;-6123.81;3.77
2017-12-01 03:53:00;351230497;W�ODAWA;;-0.34;;-0.05;-9.89;313.97;319.75;0.29;-14448.20;4.06
2017-12-01 03:54:00;351230497;W�ODAWA;;-0.32;;0.10;-9.81;313.95;319.69;0.42;-20663.90;4.17
2017-12-01 03:55:00;351230497;W�ODAWA;;-0.36;;0.13;-9.77;313.73;319.63;0.50;-12775.90;4
2017-12-01 03:56:00;351230497;W�ODAWA;;-0.43;;0.06;-9.88;313.26;319.60;0.49;-21793.10;3.60
2017-12-01 03:57:00;351230497;W�ODAWA;;-0.33;;-0.09;-9.97;313.05;319.64;0.24;-10400.80;3.29
2017-12-01 03:58:00;351230497;W�ODAWA;;-0.39;;-0.18;-10.01;312.77;319.53;0.22;-3845.07;3.07
2017-12-01 03:59:00;351230497;W�ODAWA;;-0.42;;-0.21;-10.02;312.77;319.67;0.22;-269.57;2.91
2017-12-01 04:00:00;351230497;W�ODAWA;;-0.63;;0.03;-9.81;312.49;319.68;0.66;-21004.60;2.65
2017-12-01 04:01:00;351230497;W�ODAWA;;-0.61;;0.04;-9.76;312.56;319.64;0.65;-5282.61;2.72
2017-12-01 04:02:00;351230497;W�ODAWA;;-0.47;;-0.21;-9.85;312.50;319.73;0.26;375.54;2.41
2017-12-01 04:03:00;351230497;W�ODAWA;;-0.34;;-0.21;-9.81;312.72;319.52;0.14;-4922.45;2.80
2017-12-01 04:04:00;351230497;W�ODAWA;;-0.38;;-0.18;-9.96;312.76;319.52;0.20;-2761.58;3.02
2017-12-01 04:05:00;351230497;W�ODAWA;;-0.32;;-0.47;-10.16;312.39;319.59;-0.15;2767.73;2.49
2017-12-01 04:06:00;351230497;W�ODAWA;;-0.32;;-0.58;-10.22;312.57;319.53;-0.25;1990.15;2.68
2017-12-01 04:07:00;351230497;W�ODAWA;;-0.33;;-0.72;-10.36;312.97;319.61;-0.39;1531.58;3
2017-12-01 04:08:00;351230497;W�ODAWA;;-0.37;;-0.86;-10.51;313;319.63;-0.49;1275.35;3.02
2017-12-01 04:09:00;351230497;W�ODAWA;;-0.32;;-1.01;-10.67;312.59;319.69;-0.68;1090.84;2.56
2017-12-01 04:10:00;351230497;W�ODAWA;;-0.35;;-1.10;-10.64;312.23;319.67;-0.74;990.48;2.10
2017-12-01 04:11:00;351230497;W�ODAWA;;-0.47;;-0.91;-10.51;312.47;319.55;-0.44;1191.22;2.52
2017-12-01 04:12:00;351230497;W�ODAWA;;-0.49;;-0.93;-10.64;312.39;319.58;-0.44;1161.58;2.52
2017-12-01 04:13:00;351230497;W�ODAWA;;-0.35;;-1.16;-10.70;312.04;319.76;-0.80;935.70;1.82
2017-12-01 04:14:00;351230497;W�ODAWA;;-0.52;;-1.16;-10.65;312.65;319.50;-0.65;933.15;2.64
2017-12-01 04:15:00;351230497;W�ODAWA;;-0.38;;-1.22;-10.80;313.38;319.56;-0.84;896.59;3.40
2017-12-01 04:16:00;351230497;W�ODAWA;;-0.35;;-1.50;-10.94;312.94;319.70;-1.14;740.83;2.68
2017-12-01 04:17:00;351230497;W�ODAWA;;-0.40;;-1.33;-10.81;312.57;319.62;-0.93;825.08;2.43
2017-12-01 04:18:00;351230497;W�ODAWA;;-0.51;;-1.43;-10.90;312.38;319.55;-0.92;775.91;2.30
2017-12-01 04:19:00;351230497;W�ODAWA;;-0.43;;-1.34;-10.77;312.59;319.80;-0.91;818.46;2.22